owner,sensor,date,latitude,longitude,vertical_datum,sea_water_speed,direction_of_sea_water_velocity,upward_sea_water_velocity,qcFlag
Anadarko,ioos:station:wmo:42373:1,2021-12-01T00:15:00Z,27.3539,-94.6254,79.0,7.6,104.4,-9999.0,'111111111,111111111,999999991'
Anadarko,ioos:station:wmo:42373:1,2021-12-01T00:35:00Z,27.3539,-94.6254,79.0,6.4,119.7,-9999.0,'111111111,111111111,999999991'
Anadarko,ioos:station:wmo:42373:1,2021-12-01T00:55:00Z,27.3539,-94.6254,79.0,6.3,109.6,-9999.0,'111111111,111111111,999999991'
Anadarko,ioos:station:wmo:42373:1,2021-12-01T01:15:00Z,27.3539,-94.6254,79.0,6.3,112.5,-9999.0,'111111111,111111111,999999991'
Anadarko,ioos:station:wmo:42373:1,2021-12-01T01:35:00Z,27.3539,-94.6254,79.0,8.7,116.0,-9999.0,'111111111,111111111,999999991'
Anadarko,ioos:station:wmo:42373:1,2021-12-01T01:55:00Z,27.3539,-94.6254,79.0,9.1,109.8,-9999.0,'111111111,111111111,999999991'
Anadarko,ioos:station:wmo:42373:1,2021-12-01T02:15:00Z,27.3539,-94.6254,79.0,9.5,115.5,-9999.0,'111111111,111111111,999999991'
Anadarko,ioos:station:wmo:42373:1,2021-12-01T02:35:00Z,27.3539,-94.6254,79.0,9.5,119.0,-9999.0,'111111111,111111111,999999991'
Anadarko,ioos:station:wmo:42373:1,2021-12-01T02:55:00Z,27.3539,-94.6254,79.0,7.8,117.6,-9999.0,'111111111,111111111,999999991'
Anadarko,ioos:station:wmo:42373:1,2021-12-01T03:15:00Z,27.3539,-94.6254,79.0,11.1,118.7,-9999.0,'111111111,111111111,999999991'
Anadarko,ioos:station:wmo:42373:1,2021-12-01T03:35:00Z,27.3539,-94.6254,79.0,11.5,116.8,-9999.0,'111111111,111111111,999999991'
Anadarko,ioos:station:wmo:42373:1,2021-12-01T03:55:00Z,27.3539,-94.6254,79.0,11.1,112.9,-9999.0,'111111111,111111111,999999991'
Anadarko,ioos:station:wmo:42373:1,2021-12-01T04:15:00Z,27.3539,-94.6254,79.0,11.1,111.0,-9999.0,'111111111,111111111,999999991'
Anadarko,ioos:station:wmo:42373:1,2021-12-01T04:35:00Z,27.3539,-94.6254,79.0,10.8,112.3,-9999.0,'111111111,111111111,999999991'
Anadarko,ioos:station:wmo:42373:1,2021-12-01T04:55:00Z,27.3539,-94.6254,79.0,11.2,111.5,-9999.0,'111111111,111111111,999999991'
Anadarko,ioos:station:wmo:42373:1,2021-12-01T05:15:00Z,27.3539,-94.6254,79.0,10.0,110.4,-9999.0,'111111111,111111111,999999991'
Anadarko,ioos:station:wmo:42373:1,2021-12-01T05:35:00Z,27.3539,-94.6254,79.0,10.5,112.4,-9999.0,'111111111,111111111,999999991'
Anadarko,ioos:station:wmo:42373:1,2021-12-01T05:55:00Z,27.3539,-94.6254,79.0,10.3,111.1,-9999.0,'111111111,111111111,999999991'
Anadarko,ioos:station:wmo:42373:1,2021-12-01T06:15:00Z,27.3539,-94.6254,79.0,11.8,112.4,-9999.0,'111111111,111111111,999999991'
Anadarko,ioos:station:wmo:42373:1,2021-12-01T06:35:00Z,27.3539,-94.6254,79.0,11.0,113.1,-9999.0,'111111111,111111111,999999991'
Anadarko,ioos:station:wmo:42373:1,2021-12-01T06:55:00Z,27.3539,-94.6254,79.0,10.7,114.2,-9999.0,'111111111,111111111,999999991'
Anadarko,ioos:station:wmo:42373:1,2021-12-01T07:15:00Z,27.3539,-94.6254,79.0,8.8,107.2,-9999.0,'111111111,111111111,999999991'
Anadarko,ioos:station:wmo:42373:1,2021-12-01T07:35:00Z,27.3539,-94.6254,79.0,11.7,119.6,-9999.0,'111111111,111111111,999999991'
Anadarko,ioos:station:wmo:42373:1,2021-12-01T07:55:00Z,27.3539,-94.6254,79.0,12.4,116.8,-9999.0,'111111111,111111111,999999991'
Anadarko,ioos:station:wmo:42373:1,2021-12-01T08:15:00Z,27.3539,-94.6254,79.0,11.5,124.4,-9999.0,'111111111,111111111,999999991'
Anadarko,ioos:station:wmo:42373:1,2021-12-01T08:35:00Z,27.3539,-94.6254,79.0,10.6,126.5,-9999.0,'111111111,111111111,999999991'
Anadarko,ioos:station:wmo:42373:1,2021-12-01T08:55:00Z,27.3539,-94.6254,79.0,10.7,124.3,-9999.0,'111111111,111111111,999999991'
Anadarko,ioos:station:wmo:42373:1,2021-12-01T09:15:00Z,27.3539,-94.6254,79.0,7.9,117.2,-9999.0,'111111111,111111111,999999991'
Anadarko,ioos:station:wmo:42373:1,2021-12-01T09:35:00Z,27.3539,-94.6254,79.0,7.9,126.3,-9999.0,'111111111,111111111,999999991'
Anadarko,ioos:station:wmo:42373:1,2021-12-01T09:55:00Z,27.3539,-94.6254,79.0,6.6,118.1,-9999.0,'111111111,111111111,999999991'
Anadarko,ioos:station:wmo:42373:1,2021-12-01T10:15:00Z,27.3539,-94.6254,79.0,6.2,121.9,-9999.0,'111111111,111111111,999999991'
Anadarko,ioos:station:wmo:42373:1,2021-12-01T10:35:00Z,27.3539,-94.6254,79.0,5.1,120.6,-9999.0,'111111111,111111111,999999991'
Anadarko,ioos:station:wmo:42373:1,2021-12-01T10:55:00Z,27.3539,-94.6254,79.0,3.9,115.9,-9999.0,'111111111,111111111,999999991'
Anadarko,ioos:station:wmo:42373:1,2021-12-01T11:15:00Z,27.3539,-94.6254,79.0,3.6,114.4,-9999.0,'111111111,111111111,999999991'
Anadarko,ioos:station:wmo:42373:1,2021-12-01T11:35:00Z,27.3539,-94.6254,79.0,3.8,102.2,-9999.0,'111111111,111111111,999999991'
Anadarko,ioos:station:wmo:42373:1,2021-12-01T11:55:00Z,27.3539,-94.6254,79.0,5.6,92.0,-9999.0,'111111111,111111111,999999991'
Anadarko,ioos:station:wmo:42373:1,2021-12-01T12:15:00Z,27.3539,-94.6254,79.0,7.0,81.8,-9999.0,'111111111,111111111,999999991'
Anadarko,ioos:station:wmo:42373:1,2021-12-01T12:35:00Z,27.3539,-94.6254,79.0,6.5,81.1,-9999.0,'111111111,111111111,999999991'
Anadarko,ioos:station:wmo:42373:1,2021-12-01T12:55:00Z,27.3539,-94.6254,79.0,7.1,60.6,-9999.0,'111111111,111111111,999999991'
Anadarko,ioos:station:wmo:42373:1,2021-12-01T13:15:00Z,27.3539,-94.6254,79.0,9.6,66.6,-9999.0,'111111111,111111111,999999991'
Anadarko,ioos:station:wmo:42373:1,2021-12-01T13:35:00Z,27.3539,-94.6254,79.0,8.8,53.8,-9999.0,'111111111,111111111,999999991'
Anadarko,ioos:station:wmo:42373:1,2021-12-01T13:55:00Z,27.3539,-94.6254,79.0,8.0,50.6,-9999.0,'111111111,111111111,999999991'
Anadarko,ioos:station:wmo:42373:1,2021-12-01T14:15:00Z,27.3539,-94.6254,79.0,9.0,51.3,-9999.0,'111111111,111111111,999999991'
Anadarko,ioos:station:wmo:42373:1,2021-12-01T14:35:00Z,27.3539,-94.6254,79.0,9.1,57.5,-9999.0,'111111111,111111111,999999991'
Anadarko,ioos:station:wmo:42373:1,2021-12-01T14:55:00Z,27.3539,-94.6254,79.0,8.0,51.6,-9999.0,'111111111,111111111,999999991'
Anadarko,ioos:station:wmo:42373:1,2021-12-01T15:15:00Z,27.3539,-94.6254,79.0,8.7,50.6,-9999.0,'111111111,111111111,999999991'
Anadarko,ioos:station:wmo:42373:1,2021-12-01T15:35:00Z,27.3539,-94.6254,79.0,8.5,58.0,-9999.0,'111111111,111111111,999999991'
Anadarko,ioos:station:wmo:42373:1,2021-12-01T15:55:00Z,27.3539,-94.6254,79.0,8.6,73.9,-9999.0,'111111111,111111111,999999991'
Anadarko,ioos:station:wmo:42373:1,2021-12-01T16:15:00Z,27.3539,-94.6254,79.0,8.6,77.3,-9999.0,'111111111,111111111,999999991'
Anadarko,ioos:station:wmo:42373:1,2021-12-01T16:35:00Z,27.3539,-94.6254,79.0,9.0,81.7,-9999.0,'111111111,111111111,999999991'
Anadarko,ioos:station:wmo:42373:1,2021-12-01T16:55:00Z,27.3539,-94.6254,79.0,9.9,86.0,-9999.0,'111111111,111111111,999999991'
Anadarko,ioos:station:wmo:42373:1,2021-12-01T17:15:00Z,27.3539,-94.6254,79.0,7.8,72.0,-9999.0,'111111111,111111111,999999991'
Anadarko,ioos:station:wmo:42373:1,2021-12-01T17:35:00Z,27.3539,-94.6254,79.0,8.1,68.2,-9999.0,'111111111,111111111,999999991'
Anadarko,ioos:station:wmo:42373:1,2021-12-01T17:55:00Z,27.3539,-94.6254,79.0,7.4,68.6,-9999.0,'111111111,111111111,999999991'
Anadarko,ioos:station:wmo:42373:1,2021-12-01T18:15:00Z,27.3539,-94.6254,79.0,6.6,58.0,-9999.0,'111111111,111111111,999999991'
Anadarko,ioos:station:wmo:42373:1,2021-12-01T18:35:00Z,27.3539,-94.6254,79.0,7.4,59.3,-9999.0,'111111111,111111111,999999991'
Anadarko,ioos:station:wmo:42373:1,2021-12-01T18:55:00Z,27.3539,-94.6254,79.0,7.8,73.0,-9999.0,'111111111,111111111,999999991'
Anadarko,ioos:station:wmo:42373:1,2021-12-01T19:15:00Z,27.3539,-94.6254,79.0,8.9,78.9,-9999.0,'111111111,111111111,999999991'
Anadarko,ioos:station:wmo:42373:1,2021-12-01T19:35:00Z,27.3539,-94.6254,79.0,7.6,71.6,-9999.0,'111111111,111111111,999999991'
Anadarko,ioos:station:wmo:42373:1,2021-12-01T19:55:00Z,27.3539,-94.6254,79.0,8.0,74.1,-9999.0,'111111111,111111111,999999991'
Anadarko,ioos:station:wmo:42373:1,2021-12-01T20:15:00Z,27.3539,-94.6254,79.0,7.0,64.5,-9999.0,'111111111,111111111,999999991'
Anadarko,ioos:station:wmo:42373:1,2021-12-01T20:35:00Z,27.3539,-94.6254,79.0,7.2,66.3,-9999.0,'111111111,111111111,999999991'
Anadarko,ioos:station:wmo:42373:1,2021-12-01T20:55:00Z,27.3539,-94.6254,79.0,7.2,104.4,-9999.0,'111111111,111111111,999999991'
Anadarko,ioos:station:wmo:42373:1,2021-12-01T21:15:00Z,27.3539,-94.6254,79.0,7.9,103.2,-9999.0,'111111111,111111111,999999991'
Anadarko,ioos:station:wmo:42373:1,2021-12-01T21:35:00Z,27.3539,-94.6254,79.0,7.9,92.2,-9999.0,'111111111,111111111,999999991'
Anadarko,ioos:station:wmo:42373:1,2021-12-01T21:55:00Z,27.3539,-94.6254,79.0,6.2,76.9,-9999.0,'111111111,111111111,999999991'
Anadarko,ioos:station:wmo:42373:1,2021-12-01T22:15:00Z,27.3539,-94.6254,79.0,5.9,103.8,-9999.0,'111111111,111111111,999999991'
Anadarko,ioos:station:wmo:42373:1,2021-12-01T22:35:00Z,27.3539,-94.6254,79.0,7.3,90.8,-9999.0,'111111111,111111111,999999991'
Anadarko,ioos:station:wmo:42373:1,2021-12-01T22:55:00Z,27.3539,-94.6254,79.0,7.3,101.9,-9999.0,'111111111,111111111,999999991'
Anadarko,ioos:station:wmo:42373:1,2021-12-01T23:15:00Z,27.3539,-94.6254,79.0,7.0,97.4,-9999.0,'111111111,111111111,999999991'
Anadarko,ioos:station:wmo:42373:1,2021-12-01T23:35:00Z,27.3539,-94.6254,79.0,6.8,90.8,-9999.0,'111111111,111111111,999999991'
Anadarko,ioos:station:wmo:42373:1,2021-12-01T23:55:00Z,27.3539,-94.6254,79.0,6.7,84.0,-9999.0,'111111111,111111111,999999991'
Anadarko,ioos:station:wmo:42373:1,2021-12-02T00:15:00Z,27.3539,-94.6254,79.0,10.5,87.3,-9999.0,'111111111,111111111,999999991'
Anadarko,ioos:station:wmo:42373:1,2021-12-02T00:35:00Z,27.3539,-94.6254,79.0,9.4,94.3,-9999.0,'111111111,111111111,999999991'
Anadarko,ioos:station:wmo:42373:1,2021-12-02T00:55:00Z,27.3539,-94.6254,79.0,8.6,102.7,-9999.0,'111111111,111111111,999999991'
Anadarko,ioos:station:wmo:42373:1,2021-12-02T01:15:00Z,27.3539,-94.6254,79.0,10.1,103.8,-9999.0,'111111111,111111111,999999991'
Anadarko,ioos:station:wmo:42373:1,2021-12-02T01:35:00Z,27.3539,-94.6254,79.0,9.7,105.6,-9999.0,'111111111,111111111,999999991'
Anadarko,ioos:station:wmo:42373:1,2021-12-02T01:55:00Z,27.3539,-94.6254,79.0,9.7,118.9,-9999.0,'111111111,111111111,999999991'
Anadarko,ioos:station:wmo:42373:1,2021-12-02T02:15:00Z,27.3539,-94.6254,79.0,10.1,123.7,-9999.0,'111111111,111111111,999999991'
Anadarko,ioos:station:wmo:42373:1,2021-12-02T02:35:00Z,27.3539,-94.6254,79.0,9.2,125.2,-9999.0,'111111111,111111111,999999991'
Anadarko,ioos:station:wmo:42373:1,2021-12-02T02:55:00Z,27.3539,-94.6254,79.0,7.0,121.0,-9999.0,'111111111,111111111,999999991'
Anadarko,ioos:station:wmo:42373:1,2021-12-02T03:15:00Z,27.3539,-94.6254,79.0,7.2,125.9,-9999.0,'111111111,111111111,999999991'
Anadarko,ioos:station:wmo:42373:1,2021-12-02T03:35:00Z,27.3539,-94.6254,79.0,8.6,133.1,-9999.0,'111111111,111111111,999999991'
Anadarko,ioos:station:wmo:42373:1,2021-12-02T03:55:00Z,27.3539,-94.6254,79.0,11.0,139.8,-9999.0,'111111111,111111111,999999991'
Anadarko,ioos:station:wmo:42373:1,2021-12-02T04:15:00Z,27.3539,-94.6254,79.0,8.8,138.7,-9999.0,'111111111,111111111,999999991'
Anadarko,ioos:station:wmo:42373:1,2021-12-02T04:35:00Z,27.3539,-94.6254,79.0,8.4,139.3,-9999.0,'111111111,111111111,999999991'
Anadarko,ioos:station:wmo:42373:1,2021-12-02T04:55:00Z,27.3539,-94.6254,79.0,8.0,143.1,-9999.0,'111111111,111111111,999999991'
Anadarko,ioos:station:wmo:42373:1,2021-12-02T05:15:00Z,27.3539,-94.6254,79.0,9.0,131.8,-9999.0,'111111111,111111111,999999991'
Anadarko,ioos:station:wmo:42373:1,2021-12-02T05:35:00Z,27.3539,-94.6254,79.0,10.3,133.4,-9999.0,'111111111,111111111,999999991'
Anadarko,ioos:station:wmo:42373:1,2021-12-02T05:55:00Z,27.3539,-94.6254,79.0,10.0,135.0,-9999.0,'111111111,111111111,999999991'
Anadarko,ioos:station:wmo:42373:1,2021-12-02T06:15:00Z,27.3539,-94.6254,79.0,9.6,147.8,-9999.0,'111111111,111111111,999999991'
Anadarko,ioos:station:wmo:42373:1,2021-12-02T06:35:00Z,27.3539,-94.6254,79.0,10.3,146.5,-9999.0,'111111111,111111111,999999991'
Anadarko,ioos:station:wmo:42373:1,2021-12-02T06:55:00Z,27.3539,-94.6254,79.0,8.5,139.8,-9999.0,'111111111,111111111,999999991'
Anadarko,ioos:station:wmo:42373:1,2021-12-02T07:15:00Z,27.3539,-94.6254,79.0,8.6,142.1,-9999.0,'111111111,111111111,999999991'
Anadarko,ioos:station:wmo:42373:1,2021-12-02T07:35:00Z,27.3539,-94.6254,79.0,10.2,141.8,-9999.0,'111111111,111111111,999999991'
Anadarko,ioos:station:wmo:42373:1,2021-12-02T07:55:00Z,27.3539,-94.6254,79.0,10.6,148.9,-9999.0,'111111111,111111111,999999991'
Anadarko,ioos:station:wmo:42373:1,2021-12-02T08:15:00Z,27.3539,-94.6254,79.0,10.0,148.8,-9999.0,'111111111,111111111,999999991'
Anadarko,ioos:station:wmo:42373:1,2021-12-02T08:35:00Z,27.3539,-94.6254,79.0,10.0,148.5,-9999.0,'111111111,111111111,999999991'
Anadarko,ioos:station:wmo:42373:1,2021-12-02T08:55:00Z,27.3539,-94.6254,79.0,11.8,145.4,-9999.0,'111111111,111111111,999999991'
Anadarko,ioos:station:wmo:42373:1,2021-12-02T09:15:00Z,27.3539,-94.6254,79.0,10.2,153.7,-9999.0,'111111111,111111111,999999991'
Anadarko,ioos:station:wmo:42373:1,2021-12-02T09:35:00Z,27.3539,-94.6254,79.0,10.1,165.1,-9999.0,'111111111,111111111,999999991'
Anadarko,ioos:station:wmo:42373:1,2021-12-02T09:55:00Z,27.3539,-94.6254,79.0,9.8,161.6,-9999.0,'111111111,111111111,999999991'
Anadarko,ioos:station:wmo:42373:1,2021-12-02T10:15:00Z,27.3539,-94.6254,79.0,9.6,168.6,-9999.0,'111111111,111111111,999999991'
Anadarko,ioos:station:wmo:42373:1,2021-12-02T10:35:00Z,27.3539,-94.6254,79.0,8.9,161.0,-9999.0,'111111111,111111111,999999991'
Anadarko,ioos:station:wmo:42373:1,2021-12-02T10:55:00Z,27.3539,-94.6254,79.0,6.0,177.1,-9999.0,'111111111,111111111,999999991'
Anadarko,ioos:station:wmo:42373:1,2021-12-02T11:15:00Z,27.3539,-94.6254,79.0,7.2,176.8,-9999.0,'111111111,111111111,999999991'
Anadarko,ioos:station:wmo:42373:1,2021-12-02T11:35:00Z,27.3539,-94.6254,79.0,8.1,177.2,-9999.0,'111111111,111111111,999999991'
Anadarko,ioos:station:wmo:42373:1,2021-12-02T11:55:00Z,27.3539,-94.6254,79.0,5.4,160.6,-9999.0,'111111111,111111111,999999991'
Anadarko,ioos:station:wmo:42373:1,2021-12-02T12:15:00Z,27.3539,-94.6254,79.0,5.6,160.3,-9999.0,'111111111,111111111,999999991'
Anadarko,ioos:station:wmo:42373:1,2021-12-02T12:35:00Z,27.3539,-94.6254,79.0,4.5,124.0,-9999.0,'111111111,111111111,999999991'
Anadarko,ioos:station:wmo:42373:1,2021-12-02T12:55:00Z,27.3539,-94.6254,79.0,3.9,78.1,-9999.0,'111111111,111111111,999999991'
Anadarko,ioos:station:wmo:42373:1,2021-12-02T13:15:00Z,27.3539,-94.6254,79.0,5.6,99.3,-9999.0,'111111111,111111111,999999991'
Anadarko,ioos:station:wmo:42373:1,2021-12-02T13:35:00Z,27.3539,-94.6254,79.0,5.1,87.8,-9999.0,'111111111,111111111,999999991'
Anadarko,ioos:station:wmo:42373:1,2021-12-02T13:55:00Z,27.3539,-94.6254,79.0,4.6,73.5,-9999.0,'111111111,111111111,999999991'
Anadarko,ioos:station:wmo:42373:1,2021-12-02T14:15:00Z,27.3539,-94.6254,79.0,5.8,62.1,-9999.0,'111111111,111111111,999999991'
Anadarko,ioos:station:wmo:42373:1,2021-12-02T14:35:00Z,27.3539,-94.6254,79.0,7.7,70.4,-9999.0,'111111111,111111111,999999991'
Anadarko,ioos:station:wmo:42373:1,2021-12-02T14:55:00Z,27.3539,-94.6254,79.0,5.6,63.4,-9999.0,'111111111,111111111,999999991'
Anadarko,ioos:station:wmo:42373:1,2021-12-02T15:15:00Z,27.3539,-94.6254,79.0,7.9,58.5,-9999.0,'111111111,111111111,999999991'
Anadarko,ioos:station:wmo:42373:1,2021-12-02T15:35:00Z,27.3539,-94.6254,79.0,6.8,79.8,-9999.0,'111111111,111111111,999999991'
Anadarko,ioos:station:wmo:42373:1,2021-12-02T15:55:00Z,27.3539,-94.6254,79.0,7.8,64.1,-9999.0,'111111111,111111111,999999991'
Anadarko,ioos:station:wmo:42373:1,2021-12-02T16:15:00Z,27.3539,-94.6254,79.0,8.3,66.5,-9999.0,'111111111,111111111,999999991'
Anadarko,ioos:station:wmo:42373:1,2021-12-02T16:35:00Z,27.3539,-94.6254,79.0,7.4,65.2,-9999.0,'111111111,111111111,999999991'
Anadarko,ioos:station:wmo:42373:1,2021-12-02T16:55:00Z,27.3539,-94.6254,79.0,8.8,63.7,-9999.0,'111111111,111111111,999999991'
Anadarko,ioos:station:wmo:42373:1,2021-12-02T17:15:00Z,27.3539,-94.6254,79.0,8.9,83.5,-9999.0,'111111111,111111111,999999991'
Anadarko,ioos:station:wmo:42373:1,2021-12-02T17:35:00Z,27.3539,-94.6254,79.0,8.6,75.2,-9999.0,'111111111,111111111,999999991'
Anadarko,ioos:station:wmo:42373:1,2021-12-02T17:55:00Z,27.3539,-94.6254,79.0,9.1,81.2,-9999.0,'111111111,111111111,999999991'
Anadarko,ioos:station:wmo:42373:1,2021-12-02T18:15:00Z,27.3539,-94.6254,79.0,10.4,83.9,-9999.0,'111111111,111111111,999999991'
Anadarko,ioos:station:wmo:42373:1,2021-12-02T18:35:00Z,27.3539,-94.6254,79.0,10.0,83.7,-9999.0,'111111111,111111111,999999991'
Anadarko,ioos:station:wmo:42373:1,2021-12-02T18:55:00Z,27.3539,-94.6254,79.0,9.8,80.1,-9999.0,'111111111,111111111,999999991'
Anadarko,ioos:station:wmo:42373:1,2021-12-02T19:15:00Z,27.3539,-94.6254,79.0,9.8,74.7,-9999.0,'111111111,111111111,999999991'
Anadarko,ioos:station:wmo:42373:1,2021-12-02T19:35:00Z,27.3539,-94.6254,79.0,10.8,81.0,-9999.0,'111111111,111111111,999999991'
Anadarko,ioos:station:wmo:42373:1,2021-12-02T19:55:00Z,27.3539,-94.6254,79.0,9.2,90.0,-9999.0,'111111111,111111111,999999991'
Anadarko,ioos:station:wmo:42373:1,2021-12-02T20:15:00Z,27.3539,-94.6254,79.0,8.3,97.6,-9999.0,'111111111,111111111,999999991'
Anadarko,ioos:station:wmo:42373:1,2021-12-02T20:35:00Z,27.3539,-94.6254,79.0,8.5,77.8,-9999.0,'111111111,111111111,999999991'
Anadarko,ioos:station:wmo:42373:1,2021-12-02T20:55:00Z,27.3539,-94.6254,79.0,7.7,79.6,-9999.0,'111111111,111111111,999999991'
Anadarko,ioos:station:wmo:42373:1,2021-12-02T21:15:00Z,27.3539,-94.6254,79.0,7.9,68.6,-9999.0,'111111111,111111111,999999991'
Anadarko,ioos:station:wmo:42373:1,2021-12-02T21:35:00Z,27.3539,-94.6254,79.0,9.0,75.2,-9999.0,'111111111,111111111,999999991'
Anadarko,ioos:station:wmo:42373:1,2021-12-02T21:55:00Z,27.3539,-94.6254,79.0,9.2,64.8,-9999.0,'111111111,111111111,999999991'
Anadarko,ioos:station:wmo:42373:1,2021-12-02T22:15:00Z,27.3539,-94.6254,79.0,8.4,74.1,-9999.0,'111111111,111111111,999999991'
Anadarko,ioos:station:wmo:42373:1,2021-12-02T22:35:00Z,27.3539,-94.6254,79.0,9.7,66.9,-9999.0,'111111111,111111111,999999991'
Anadarko,ioos:station:wmo:42373:1,2021-12-02T22:55:00Z,27.3539,-94.6254,79.0,8.0,67.3,-9999.0,'111111111,111111111,999999991'
Anadarko,ioos:station:wmo:42373:1,2021-12-02T23:15:00Z,27.3539,-94.6254,79.0,7.9,68.3,-9999.0,'111111111,111111111,999999991'
Anadarko,ioos:station:wmo:42373:1,2021-12-02T23:35:00Z,27.3539,-94.6254,79.0,7.8,60.2,-9999.0,'111111111,111111111,999999991'
Anadarko,ioos:station:wmo:42373:1,2021-12-02T23:55:00Z,27.3539,-94.6254,79.0,11.1,49.4,-9999.0,'111111111,111111111,999999991'
Anadarko,ioos:station:wmo:42373:1,2021-12-03T00:15:00Z,27.3539,-94.6254,79.0,10.8,49.1,-9999.0,'111111111,111111111,999999991'
Anadarko,ioos:station:wmo:42373:1,2021-12-03T00:35:00Z,27.3539,-94.6254,79.0,11.4,59.0,-9999.0,'111111111,111111111,999999991'
Anadarko,ioos:station:wmo:42373:1,2021-12-03T00:55:00Z,27.3539,-94.6254,79.0,10.8,55.6,-9999.0,'111111111,111111111,999999991'
Anadarko,ioos:station:wmo:42373:1,2021-12-03T01:15:00Z,27.3539,-94.6254,79.0,11.0,58.3,-9999.0,'111111111,111111111,999999991'
Anadarko,ioos:station:wmo:42373:1,2021-12-03T01:35:00Z,27.3539,-94.6254,79.0,11.0,55.0,-9999.0,'111111111,111111111,999999991'
Anadarko,ioos:station:wmo:42373:1,2021-12-03T01:55:00Z,27.3539,-94.6254,79.0,9.9,66.8,-9999.0,'111111111,111111111,999999991'
Anadarko,ioos:station:wmo:42373:1,2021-12-03T02:15:00Z,27.3539,-94.6254,79.0,9.6,54.3,-9999.0,'111111111,111111111,999999991'
Anadarko,ioos:station:wmo:42373:1,2021-12-03T02:35:00Z,27.3539,-94.6254,79.0,8.6,60.2,-9999.0,'111111111,111111111,999999991'
Anadarko,ioos:station:wmo:42373:1,2021-12-03T02:55:00Z,27.3539,-94.6254,79.0,7.2,47.8,-9999.0,'111111111,111111111,999999991'
Anadarko,ioos:station:wmo:42373:1,2021-12-03T03:15:00Z,27.3539,-94.6254,79.0,6.9,54.5,-9999.0,'111111111,111111111,999999991'
Anadarko,ioos:station:wmo:42373:1,2021-12-03T03:35:00Z,27.3539,-94.6254,79.0,5.7,55.8,-9999.0,'111111111,111111111,999999991'
Anadarko,ioos:station:wmo:42373:1,2021-12-03T03:55:00Z,27.3539,-94.6254,79.0,5.8,51.3,-9999.0,'111111111,111111111,999999991'
Anadarko,ioos:station:wmo:42373:1,2021-12-03T04:15:00Z,27.3539,-94.6254,79.0,7.4,72.8,-9999.0,'111111111,111111111,999999991'
Anadarko,ioos:station:wmo:42373:1,2021-12-03T04:35:00Z,27.3539,-94.6254,79.0,7.0,82.6,-9999.0,'111111111,111111111,999999991'
Anadarko,ioos:station:wmo:42373:1,2021-12-03T04:55:00Z,27.3539,-94.6254,79.0,6.8,99.3,-9999.0,'111111111,111111111,999999991'
Anadarko,ioos:station:wmo:42373:1,2021-12-03T05:15:00Z,27.3539,-94.6254,79.0,7.0,105.8,-9999.0,'111111111,111111111,999999991'
Anadarko,ioos:station:wmo:42373:1,2021-12-03T05:35:00Z,27.3539,-94.6254,79.0,6.7,109.2,-9999.0,'111111111,111111111,999999991'
Anadarko,ioos:station:wmo:42373:1,2021-12-03T05:55:00Z,27.3539,-94.6254,79.0,9.3,116.3,-9999.0,'111111111,111111111,999999991'
Anadarko,ioos:station:wmo:42373:1,2021-12-03T06:15:00Z,27.3539,-94.6254,79.0,8.1,114.7,-9999.0,'111111111,111111111,999999991'
Anadarko,ioos:station:wmo:42373:1,2021-12-03T06:35:00Z,27.3539,-94.6254,79.0,8.5,118.7,-9999.0,'111111111,111111111,999999991'
Anadarko,ioos:station:wmo:42373:1,2021-12-03T06:55:00Z,27.3539,-94.6254,79.0,8.7,116.6,-9999.0,'111111111,111111111,999999991'
Anadarko,ioos:station:wmo:42373:1,2021-12-03T07:15:00Z,27.3539,-94.6254,79.0,9.3,112.7,-9999.0,'111111111,111111111,999999991'
Anadarko,ioos:station:wmo:42373:1,2021-12-03T07:35:00Z,27.3539,-94.6254,79.0,9.5,113.0,-9999.0,'111111111,111111111,999999991'
Anadarko,ioos:station:wmo:42373:1,2021-12-03T07:55:00Z,27.3539,-94.6254,79.0,11.6,116.6,-9999.0,'111111111,111111111,999999991'
Anadarko,ioos:station:wmo:42373:1,2021-12-03T08:15:00Z,27.3539,-94.6254,79.0,12.9,119.7,-9999.0,'111111111,111111111,999999991'
Anadarko,ioos:station:wmo:42373:1,2021-12-03T08:35:00Z,27.3539,-94.6254,79.0,13.5,121.7,-9999.0,'111111111,111111111,999999991'
Anadarko,ioos:station:wmo:42373:1,2021-12-03T08:55:00Z,27.3539,-94.6254,79.0,14.4,118.7,-9999.0,'111111111,111111111,999999991'
Anadarko,ioos:station:wmo:42373:1,2021-12-03T09:15:00Z,27.3539,-94.6254,79.0,11.9,118.5,-9999.0,'111111111,111111111,999999991'
Anadarko,ioos:station:wmo:42373:1,2021-12-03T09:35:00Z,27.3539,-94.6254,79.0,12.5,112.1,-9999.0,'111111111,111111111,999999991'
Anadarko,ioos:station:wmo:42373:1,2021-12-03T09:55:00Z,27.3539,-94.6254,79.0,13.5,113.5,-9999.0,'111111111,111111111,999999991'
Anadarko,ioos:station:wmo:42373:1,2021-12-03T10:15:00Z,27.3539,-94.6254,79.0,12.8,117.0,-9999.0,'111111111,111111111,999999991'
Anadarko,ioos:station:wmo:42373:1,2021-12-03T10:35:00Z,27.3539,-94.6254,79.0,12.8,118.6,-9999.0,'111111111,111111111,999999991'
Anadarko,ioos:station:wmo:42373:1,2021-12-03T10:55:00Z,27.3539,-94.6254,79.0,11.9,111.6,-9999.0,'111111111,111111111,999999991'
Anadarko,ioos:station:wmo:42373:1,2021-12-03T11:15:00Z,27.3539,-94.6254,79.0,11.6,121.6,-9999.0,'111111111,111111111,999999991'
Anadarko,ioos:station:wmo:42373:1,2021-12-03T11:35:00Z,27.3539,-94.6254,79.0,14.1,109.5,-9999.0,'111111111,111111111,999999991'
Anadarko,ioos:station:wmo:42373:1,2021-12-03T11:55:00Z,27.3539,-94.6254,79.0,11.0,102.6,-9999.0,'111111111,111111111,999999991'
Anadarko,ioos:station:wmo:42373:1,2021-12-03T12:15:00Z,27.3539,-94.6254,79.0,11.1,96.2,-9999.0,'111111111,111111111,999999991'
Anadarko,ioos:station:wmo:42373:1,2021-12-03T12:35:00Z,27.3539,-94.6254,79.0,11.0,90.0,-9999.0,'111111111,111111111,999999991'
Anadarko,ioos:station:wmo:42373:1,2021-12-03T12:55:00Z,27.3539,-94.6254,79.0,11.0,86.9,-9999.0,'111111111,111111111,999999991'
Anadarko,ioos:station:wmo:42373:1,2021-12-03T13:15:00Z,27.3539,-94.6254,79.0,12.1,94.3,-9999.0,'111111111,111111111,999999991'
Anadarko,ioos:station:wmo:42373:1,2021-12-03T13:35:00Z,27.3539,-94.6254,79.0,11.1,98.3,-9999.0,'111111111,111111111,999999991'
Anadarko,ioos:station:wmo:42373:1,2021-12-03T13:55:00Z,27.3539,-94.6254,79.0,10.4,88.9,-9999.0,'111111111,111111111,999999991'